Location: Bruderhein
(53.8035°N, 112.9265°W)
Time: 07:48:41
(UTC+00:00)

TIGRISAT - Pass Details

Date: 10 April 2023
Orbit: 599 x 682 km, 97.7° (Epoch: 03 June)

Event Time Altitude Azimuth Distance (km) Brightness Sun altitude
Rises 10:02:08 0° 99° (E) 3,014 ? -20.7°
Reaches altitude 10° 10:05:56 10° 66° (ENE) 2,121 ? -20.4°
Maximum altitude 10:07:22 11° 48° (NE) 2,035 ? -20.2°
Drops below altitude 10° 10:08:49 10° 30° (NNE) 2,133 ? -20.1°
Sets 10:12:40 0° 358° (N) 3,062 ? -19.7°
